Japanese version Home page |
Updated on November 26, 2024 |
|
Orbital ElementsEpoch 2024 Oct. 17.0 TT = JDT 2460600.5 T 2025 Oct. 22.50377 TT Rudenko q 3.4601836 (2000.0) P Q n 0.09511380 Peri. 141.33932 +0.23261369 -0.88067634 a 4.7530645 Node 291.62475 +0.74495986 +0.43412110 e 0.2720100 Incl. 26.35416 +0.62524049 -0.18959972 P 10.4 From 64 observations 2016 Jan. 2-2024 Oct. 3, mean residual 0".7.
|
Magnitudes Graphm1 = 12.0 + 5 log d + 10.0 log r
|
The orbital elements are published on M.P.E.C. 2024-U34.
|